Location: München
(48.1351°N, 11.5820°E)
Time: 22:34:22
(UTC+01:00)

ISS - Pass Details

Date: 01 February 2020
Orbit: 415 x 423 km, 51.6° (Epoch: 25 February)

Event Time Altitude Azimuth Distance (km) Brightness Sun altitude
Rises 18:28:16 0° 287° (WNW) 2,380 1.2 -12.8°
Reaches altitude 10° 18:30:25 10° 293° (WNW) 1,513 0.0 -13.2°
Maximum altitude 18:33:44 50° 10° (N) 544 -3.4 -13.7°
Enters shadow 18:35:14 28° 73° (ENE) 836 -2.8 -14.0°
